Location: Syracuse
(43.0480°N, 76.1480°W)
Time: 11:14:21
(UTC-04:00)

Daily predictions for brighter satellites

Satellite Brightness Start Highest point End
(mag) Time Altitude Azimuth Time Altitude Azimuth Time Altitude Azimuth
OAO 3 Rocket 4.4 19:10:11 10° WSW 19:14:21 31° S 19:18:34 10° ESE
Cosmos 1452 Rocket 3.7 19:09:18 10° N 19:14:27 51° ENE 19:19:32 10° SE
MSX 4.1 19:10:30 10° S 19:16:14 77° WSW 19:22:02 10° NNW
Cosmos 2034 Rocket 4.4 19:13:28 10° SSE 19:19:18 42° E 19:25:12 10° NNE
Cosmos 1464 Rocket 4.1 19:13:39 10° SSE 19:19:43 57° E 19:25:45 10° NNE
In-Cosmos 22 4.5 19:14:44 10° N 19:20:23 51° ENE 19:25:57 10° SSE
DMSP B5D1-3 4.5 19:17:00 10° NNE 19:22:06 72° ESE 19:27:12 10° S
Cosmos 2333 Rocket 4.0 19:18:41 10° WSW 19:23:53 34° NW 19:29:08 10° N
CZ-4C R/B 3.7 19:22:45 10° WSW 19:27:48 37° NW 19:33:30 10° NNE
Cosmos 1674 4.2 19:25:26 10° NNE 19:28:13 18° ENE 19:30:59 10° ESE
CENTAUR R/B 3.5 19:26:02 10° SSE 19:30:36 23° ESE 19:35:31 10° ENE
SKYMED 2 4.0 19:27:27 10° N 19:31:48 68° WNW 19:36:06 10° SSW
ATLAS CENTAUR R/B 3.6 19:27:26 10° SSW 19:32:20 74° SE 19:48:06 10° NE
Cosmos 1408 Rocket 3.5 19:28:34 10° N 19:32:54 64° E 19:37:11 10° SSE
SJ-6B 2.8 19:29:20 10° SSE 19:33:19 74° ENE 19:37:24 10° N
Cosmos 1420 Rocket 4.4 19:29:32 10° N 19:34:36 43° ENE 19:39:39 10° SE
Cosmos 724 4.4 19:30:48 10° SSW 19:36:36 58° ESE 19:42:34 10° NE
ATLAS 5 CENTAUR R/B 1.8 19:32:44 10° SSW 19:37:30 83° SE 19:42:43 10° NE
NOSS 3-2 (C) 3.6 19:35:00 10° SW 19:41:05 87° NW 19:47:48 10° NE
Cosmos 2237 Rocket 4.2 19:37:09 10° WSW 19:42:05 29° NW 19:47:02 10° N
Cosmos 1484 Rocket 4.2 19:40:34 10° S 19:44:12 41° W 19:47:57 10° NNW
ALOS 2.9 19:42:47 10° SE 19:46:58 34° ENE 19:51:09 10° N
Cosmos 1758 3.3 19:43:34 10° S 19:47:37 68° E 19:51:43 10° NNE
Helios 1A 3.1 19:46:56 10° SSE 19:51:03 56° ENE 19:55:11 10° N
Spot 2 Rocket 3.4 19:46:22 10° SSE 19:51:21 68° ENE 19:56:23 10° N
ISS -2.6 19:50:27 10° SSW 19:53:25 34° SE 19:54:41 24° E
Cosmos 1048 Rocket 4.3 19:49:39 10° S 19:54:39 45° ESE 19:59:38 10° NNE
Cosmos 1544 3.1 19:53:32 10° S 19:57:12 56° E 20:00:54 10° NNE
Cosmos 1269 Rocket 4.1 19:52:27 10° S 19:57:35 56° ESE 20:02:45 10° NNE
METEOR-M 4.1 19:54:21 10° SSE 19:59:42 89° ENE 20:05:06 10° NNW
Resurs 1-3 3.6 19:56:20 10° SSE 20:00:40 63° ENE 20:05:02 10° N
Meteor 1-21 Rocket 4.1 19:55:32 10° N 20:01:07 82° E 20:06:39 10° SSE
SL-8 R/B 3.8 19:56:34 10° SW 20:01:15 58° SSE 20:04:21 21° ENE
Cosmos 1743 Rocket 3.5 19:58:28 10° N 20:02:54 65° E 20:07:16 10° SSE
SL-16 R/B 3.5 19:58:10 10° SW 20:03:32 42° WNW 20:08:57 10° NNE
Resurs 01 Rocket 1.6 20:01:52 10° SSE 20:06:19 88° WSW 20:10:47 10° NNW
HJ-1C 3.7 20:06:46 10° S 20:10:06 69° WSW 20:13:29 10° NNW
USA 215 3.3 20:06:49 10° NE 20:13:17 61° SE 20:19:44 10° SW
Cosmos 158 Rocket 4.3 20:08:56 10° S 20:13:24 37° ESE 20:17:53 10° NE
FENGYUN 3A 3.6 20:10:30 10° SSE 20:15:48 65° ENE 20:21:09 10° N
CZ-2D R/B 3.4 20:15:36 31° SE 20:17:08 50° ENE 20:20:55 10° N
Helios 1B rocket 2.7 20:19:06 10° N 20:23:12 71° WNW 20:27:18 10° SSW
Nadezhda 4 Rocket 4.0 20:17:20 10° N 20:23:39 85° W 20:29:50 10° S
Abrixas 2.3 20:23:57 10° WSW 20:26:58 86° NNW 20:26:59 85° N
H-2A R/B 2.6 20:28:08 40° SSE 20:29:24 70° ENE 20:33:16 10° N
GP-B 3.3 20:25:34 10° NNE 20:29:53 48° E 20:30:36 44° ESE
Cosmos 1092 Rocket 3.9 20:26:24 10° N 20:32:39 83° E 20:38:47 10° S
CZ-4B DEB 2.8 20:31:57 49° S 20:32:44 79° W 20:36:01 10° NNW
ERS-1 Rocket 3.8 20:35:35 32° ENE 20:35:35 32° ENE 20:39:50 10° N
GPS 2-04 Rocket1 4.1 20:34:33 10° SW 20:36:40 22° SSW 20:36:40 22° SSW
Gbstr 26 Del rocket 3.3 20:34:08 10° SW 20:38:34 61° SE 20:39:48 46° E
Cosmos 1655 Rocket 4.2 20:32:47 10° N 20:38:48 48° ENE 20:40:33 38° ESE
Cosmos 1943 Rocket 2.8 20:33:52 10° N 20:39:03 36° ENE 20:39:37 36° ENE
Cosmos 1953 4.4 20:36:47 10° SW 20:40:15 28° WNW 20:43:45 10° NNW
Meteor 1-29 4.1 20:37:34 10° N 20:40:56 44° WNW 20:44:16 10° SW
Cosmos 2142 Rocket 4.4 20:35:12 10° S 20:41:29 67° E 20:47:51 10° NNE
Cosmos 2369 Rocket 2.1 20:37:12 10° NNW 20:42:54 84° ENE 20:45:20 36° SSE
H-2A R/B 4.3 20:46:02 13° NNE 20:46:02 13° NNE 20:46:55 10° NNE
Cosmos 1943 3.0 20:39:07 10° SSW 20:44:44 76° ESE 20:50:22 10° NNE
Cosmos 2026 Rocket 3.9 20:38:46 10° N 20:44:48 59° E 20:46:56 39° SE
Cosmos 1110 Rocket 4.1 20:40:11 10° NNW 20:45:25 56° ENE 20:46:09 51° E
Cosmos 2058 3.9 20:45:14 10° N 20:47:53 34° NNE 20:47:53 34° NNE
Cosmos 1634 Rocket 3.8 20:43:08 10° S 20:49:21 81° E 20:55:35 10° N
Cosmos 2151 2.8 20:47:56 10° N 20:52:06 82° ENE 20:52:06 82° ENE
Cosmos 2263 4.1 20:46:33 10° NNW 20:52:21 73° ENE 20:53:43 53° SE
Cosmos 1733 3.7 20:51:19 10° SSW 20:55:09 59° W 20:58:59 10° N
Cosmos 1470 3.8 20:53:24 10° SSW 20:57:08 45° WNW 21:00:53 10° N
Cosmos 839 Rocket 4.2 20:53:38 10° NNW 21:01:20 83° WSW 21:03:47 42° SSE
ASTEX 1 4.2 20:58:55 10° N 21:03:40 50° W 21:08:22 10° SSW
Cosmos 2195 Rocket 4.5 21:00:34 10° N 21:06:56 84° W 21:10:04 32° S
Meteor 2-20 4.4 21:06:43 10° N 21:12:33 60° ENE 21:12:33 60° ENE
Meteor 2-1 Rocket 4.2 21:16:32 74° ENE 21:16:32 74° ENE 21:22:07 10° NNE
Cosmos 1331 Rocket 3.9 21:12:17 10° NNW 21:17:26 83° NNW 21:17:26 83° NNW
CENTAUR R/B 2.8 21:14:22 10° SW 21:20:28 68° NW 21:27:24 10° NNE
ATLAS 5 CENTAUR R/B 4.3 21:19:13 10° W 21:22:56 20° NNW 21:26:54 10° NNE
ALOS 4.3 21:20:33 10° SSW 21:24:26 26° W 21:28:21 10° NW
Meteor 1-16 Rocket 4.3 21:22:42 39° SSW 21:24:35 67° WNW 21:29:55 10° N
ISS -0.1 21:26:51 10° W 21:27:23 14° W 21:27:23 14° W
SL-24 R/B - RUBIN 2 4.4 21:26:55 10° NW 21:33:36 75° WSW 21:33:48 75° SW
Envisat 3.8 21:42:35 46° NNW 21:42:35 46° NNW 21:46:13 10° NNW
USA 215 4.0 21:53:08 29° NNE 21:56:11 48° NNW 22:02:23 10° W
H-2A R/B 4.5 22:01:01 13° NNE 22:01:01 13° NNE 22:01:35 10° N
Cosmos 1943 Rocket 3.8 22:17:43 10° NW 22:21:10 29° WNW 22:21:10 29° WNW
CZ-3A R/B 4.3 22:01:28 10° SW 22:27:52 73° SSW 22:27:52 73° SSW
